Location: Copeville
(33.0796°N, 96.4155°W)
Time: 07:06:32
(UTC+00:00)

JUGNU - Pass Details

Date: 28 April 2024
Orbit: 835 x 862 km, 20.0° (Epoch: 19 May)

Event Time Altitude Azimuth Distance (km) Brightness Sun altitude
Rises 01:27:14 0° 247° (WSW) 3,362 ? -5.1°
Reaches altitude 10° 01:31:49 10° 214° (SW) 2,428 ? -6.0°
Maximum altitude 01:33:34 11° 196° (SSW) 2,333 ? -6.4°
Drops below altitude 10° 01:35:19 10° 179° (S) 2,429 ? -6.7°
Enters shadow 01:39:14 - 150° (SSE) 3,188 ? -7.5°
